Ft. Stewart, GA

9:55 AM EDT on August 17, 2017 (GMT -0400)
Wright Army Air Field

Weather History for KLHW - June, 2012

Change the Weather History Date:

Tuesday, June 26, 2012

  Actual Average Record
Temperature  
Mean Temperature 75 °F -  
Max Temperature 80 °F 91 °F 101 °F (1977)
Min Temperature 71 °F 70 °F 62 °F (1979)
Cooling Degree Days 10    
Growing Degree Days 25 (Base 50)    
Moisture  
Dew Point 70 °F    
Average Humidity 89    
Maximum Humidity 100    
Minimum Humidity 64    
Precipitation  
Precipitation 0.00 in - - ()
Sea Level Pressure  
Sea Level Pressure 29.71 in    
Wind  
Wind Speed 6 mph (NE)    
Max Wind Speed 18 mph    
Max Gust Speed 26 mph    
Visibility 10 miles    
Events Rain    
Averages and records for this station are not official NWS values.
T = Trace of Precipitation, MM = Missing Value Source: NWS Daily Summary

Daily Weather History Graph

Daily Weather History Graph

Search for Another Location

Airport or City:

Trip Planner

Search our weather history database for the weather conditions in past years. The results will help you decide how hot, cold, wet, or windy it might be!

Date:

Astronomy

Jun. 26, 2012 Rise Set
Actual Time 6:22 AM EDT 8:35 PM EDT
Civil Twilight 5:54 AM EDT 9:04 PM EDT
Nautical Twilight 5:19 AM EDT 9:38 PM EDT
Astronomical Twilight 4:42 AM EDT 10:15 PM EDT
Moon 1:09 PM EDT (6/26) 12:28 AM EDT (6/26)
Length of Visible Light 15h 09m
Length of Day
14h 13m
Waxing Crescent, 45% of the Moon is Illuminated
Jun 26
Waxing Crescent
Jun 26
First Quarter
Jul 3
Full
Jul 10
Last Quarter
Jul 19
New

Hourly Weather History & Observations

Time (EDT) Temp. Dew Point Humidity Pressure Visibility Wind Dir Wind Speed Gust Speed Precip Events Conditions
12:11 AM 75.2 °F 75.2 °F 100% 29.70 in 10.0 mi Calm Calm - N/A   Mostly Cloudy
12:21 AM 75.2 °F 75.2 °F 100% 29.70 in 10.0 mi Calm Calm - N/A   Overcast
12:40 AM 75.2 °F 75.2 °F 100% 29.70 in 10.0 mi Calm Calm - N/A   Mostly Cloudy
12:55 AM 74.5 °F 74.5 °F 100% 29.70 in 10.0 mi Calm Calm - N/A   Mostly Cloudy
1:55 AM 73.8 °F 73.8 °F 100% 29.67 in 10.0 mi NNE 3.5 mph - N/A   Clear
2:55 AM 73.4 °F 73.4 °F 100% 29.65 in 10.0 mi ENE 3.5 mph - N/A   Mostly Cloudy
3:55 AM 73.8 °F 73.8 °F 100% 29.68 in 10.0 mi NNE 4.6 mph - N/A   Overcast
4:55 AM 73.8 °F 73.8 °F 100% 29.66 in 10.0 mi NE 3.5 mph - N/A   Overcast
5:55 AM 73.6 °F 73.6 °F 100% 29.68 in 10.0 mi Calm Calm - N/A   Partly Cloudy
6:22 AM 73.4 °F 73.4 °F 100% 29.68 in 10.0 mi Calm Calm - N/A Rain Light Rain
6:33 AM 73.4 °F 73.4 °F 100% 29.69 in 10.0 mi East 3.5 mph - N/A   Scattered Clouds
6:55 AM 73.6 °F 73.6 °F 100% 29.70 in 10.0 mi Calm Calm - 0.00 in   Mostly Cloudy
7:20 AM 73.4 °F 73.4 °F 100% 29.70 in 10.0 mi North 3.5 mph - N/A   Mostly Cloudy
7:26 AM 73.4 °F 73.4 °F 100% 29.70 in 10.0 mi NNE 4.6 mph - N/A   Mostly Cloudy
7:29 AM 73.4 °F 73.4 °F 100% 29.71 in 10.0 mi NNE 4.6 mph - N/A   Mostly Cloudy
7:44 AM 75.2 °F 75.2 °F 100% 29.70 in 10.0 mi NNE 4.6 mph - N/A   Overcast
7:55 AM 74.5 °F 74.5 °F 100% 29.70 in 10.0 mi NNE 5.8 mph - N/A   Overcast
8:39 AM 75.2 °F 75.2 °F 100% 29.69 in 10.0 mi NE 6.9 mph - N/A   Scattered Clouds
8:43 AM 75.2 °F 75.2 °F 100% 29.69 in 10.0 mi NNE 5.8 mph - N/A   Scattered Clouds
8:55 AM 75.6 °F 75.4 °F 99% 29.69 in 10.0 mi NNE 6.9 mph - N/A   Partly Cloudy
9:00 AM 75.2 °F 75.2 °F 100% 29.69 in 10.0 mi NE 8.1 mph - N/A   Partly Cloudy
9:11 AM 75.2 °F 75.2 °F 100% 29.69 in 10.0 mi NNE 8.1 mph - N/A   Mostly Cloudy
9:37 AM 77.0 °F 75.2 °F 94% 29.70 in 10.0 mi ENE 8.1 mph - N/A   Mostly Cloudy
9:55 AM 77.4 °F 74.1 °F 90% 29.70 in 10.0 mi ENE 6.9 mph - N/A   Scattered Clouds
11:46 AM 78.8 °F 73.4 °F 83% 29.70 in 10.0 mi NE 11.5 mph 19.6 mph N/A   Mostly Cloudy
11:55 AM 79.5 °F 73.0 °F 80% 29.70 in 10.0 mi ENE 12.7 mph 19.6 mph N/A   Mostly Cloudy
12:55 PM 79.2 °F 72.0 °F 78% 29.71 in 10.0 mi NE 15.0 mph 20.7 mph N/A   Overcast
1:25 PM 77.0 °F 71.6 °F 83% 29.72 in 10.0 mi NNE 12.7 mph 23.0 mph N/A   Overcast
1:38 PM 75.2 °F 71.6 °F 89% 29.72 in 10.0 mi NNE 13.8 mph - N/A   Light Drizzle
1:55 PM 74.5 °F 71.2 °F 90% 29.72 in 10.0 mi NE 18.4 mph - 0.00 in Rain Light Rain
2:21 PM 73.4 °F 69.8 °F 88% 29.73 in 10.0 mi NNE 13.8 mph 18.4 mph N/A   Overcast
2:24 PM 73.4 °F 69.8 °F 88% 29.73 in 10.0 mi NE 12.7 mph 19.6 mph N/A   Light Drizzle
2:55 PM 72.9 °F 69.3 °F 88% 29.73 in 10.0 mi NE 13.8 mph 21.9 mph 0.00 in   Light Drizzle
3:09 PM 73.4 °F 68.0 °F 83% 29.73 in 10.0 mi NE 12.7 mph 19.6 mph N/A   Overcast
3:55 PM 71.6 °F 65.8 °F 82% 29.72 in 10.0 mi NE 16.1 mph 26.5 mph 0.00 in   Overcast
4:55 PM 71.6 °F 65.7 °F 81% 29.73 in 10.0 mi NNE 11.5 mph - N/A   Overcast
4:56 PM 71.6 °F 66.2 °F 83% 29.73 in 10.0 mi NNE 12.7 mph - N/A   Overcast
5:55 PM 71.8 °F 64.8 °F 78% 29.71 in 10.0 mi NE 12.7 mph 18.4 mph N/A   Overcast
6:28 PM 73.4 °F 64.4 °F 73% 29.70 in 10.0 mi NE 17.3 mph - N/A   Mostly Cloudy
6:43 PM 73.4 °F 64.4 °F 73% 29.70 in 10.0 mi NNE 11.5 mph - N/A   Mostly Cloudy
6:55 PM 73.0 °F 64.6 °F 75% 29.70 in 10.0 mi NNE 12.7 mph - N/A   Mostly Cloudy
7:55 PM 72.0 °F 62.6 °F 72% 29.74 in 10.0 mi NE 11.5 mph 18.4 mph N/A   Overcast
8:55 PM 71.1 °F 62.2 °F 74% 29.75 in 10.0 mi NNE 10.4 mph - N/A   Overcast
10:55 PM 71.4 °F 59.4 °F 66% 29.77 in 10.0 mi NNE 12.7 mph - N/A   Overcast
11:07 PM 71.6 °F 59.0 °F 64% 29.77 in 10.0 mi NNE 11.5 mph - N/A   Overcast
11:16 PM 71.6 °F 59.0 °F 64% 29.77 in 10.0 mi NNE 10.4 mph - N/A   Overcast
11:55 PM 71.8 °F 59.0 °F 64% 29.78 in 10.0 mi NNE 12.7 mph - N/A   Overcast